H1 CPF 2 NER 2022 5 1 9 121 01 glonass138 H2 1805301 9138 43508 2022 5 1 0 0 0 2022 5 4 23 45 0 900 1 1 0 0 0 1 H9 10 0 59700 0.00000 0 10771164.404 -991416.294 23118243.342 10 0 59700 900.00000 0 11095738.839 1826794.848 22911077.692 10 0 59700 1800.00000 0 11617619.394 4561766.563 22259707.860 10 0 59700 2700.00000 0 12313600.919 7147737.860 21176657.584 10 0 59700 3600.00000 0 13149580.996 9524935.967 19682814.523 10 0 59700 4500.00000 0 14082007.524 11641815.757 17807037.154 10 0 59700 5400.00000 0 15059742.439 13456960.793 15585607.679 10 0 59700 6300.00000 0 16026264.405 14940567.410 13061540.245 10 0 59700 7200.00000 0 16922118.734 16075450.172 10283756.704 10 0 59700 8100.00000 0 17687511.990 16857526.785 7306144.898 10 0 59700 9000.00000 0 18264942.079 17295762.135 4186516.890 10 0 59700 9900.00000 0 18601752.542 17411573.656 985487.115 10 0 59700 10800.00000 0 18652502.438 17237723.086 -2234707.823 10 0 59700 11700.00000 0 18381050.575 16816741.447 -5411424.408 10 0 59700 12600.00000 0 17762264.546 16198954.011 -8482838.095 10 0 59700 13500.00000 0 16783280.781 15440189.275 -11389155.121 10 0 59700 14400.00000 0 15444260.723 14599269.518 -14073785.617 10 0 59700 15300.00000 0 13758609.684 13735389.913 -16484454.144 10 0 59700 16200.00000 0 11752647.748 12905497.991 -18574225.125 10 0 59700 17100.00000 0 9464745.378 12161785.096 -20302422.577 10 0 59700 18000.00000 0 6943959.165 11549396.624 -21635425.702 10 0 59700 18900.00000 0 4248224.291 11104458.311 -22547324.720 10 0 59700 19800.00000 0 1442178.830 10852502.174 -23020424.240 10 0 59700 20700.00000 0 -1405289.347 10807358.587 -23045584.595 10 0 59700 21600.00000 0 -4223671.000 10970560.965 -22622394.920 10 0 59700 22500.00000 0 -6943529.990 11331287.770 -21759175.043 10 0 59700 23400.00000 0 -9499151.776 11866843.706 -20472806.669 10 0 59700 24300.00000 0 -11831036.234 12543659.141 -18788397.559 10 0 59700 25200.00000 0 -13888131.723 13318764.963 -16738785.683 10 0 59700 26100.00000 0 -15629718.207 14141680.005 -14363893.365 10 0 59700 27000.00000 0 -17026862.189 14956630.839 -11709944.360 10 0 59700 27900.00000 0 -18063384.221 15705009.785 -8828559.354 10 0 59700 28800.00000 0 -18736300.127 16327967.017 -5775747.913 10 0 59700 29700.00000 0 -19055719.328 16769027.100 -2610816.777 10 0 59700 30600.00000 0 -19044206.344 16976619.377 604783.990 10 0 59700 31500.00000 0 -18735633.976 16906415.394 3808654.196 10 0 59700 32400.00000 0 -18173577.957 16523374.822 6938652.765 10 0 59700 33300.00000 0 -17409321.824 15803413.720 9934099.510 10 0 59700 34200.00000 0 -16499556.868 14734624.949 12736946.193 10 0 59700 35100.00000 0 -15503874.449 13317999.398 15292894.549 10 0 59700 36000.00000 0 -14482156.251 11567617.489 17552440.228 10 0 59700 36900.00000 0 -13491971.965 9510302.539 19471823.098 10 0 59700 37800.00000 0 -12586093.192 7184749.745 21013866.475 10 0 59700 38700.00000 0 -11810227.185 4640166.077 22148690.001 10 0 59700 39600.00000 0 -11201064.786 1934476.538 22854283.193 10 0 59700 40500.00000 0 -10784723.633 -867830.152 23116929.337 10 0 59700 41400.00000 0 -10575651.380 -3698128.693 22931471.996 10 0 59700 42300.00000 0 -10576034.654 -6486258.020 22301419.052 10 0 59700 43200.00000 0 -10775738.558 -9163189.673 21238882.068 10 0 59700 44100.00000 0 -11152779.670 -11663654.513 19764351.507 10 0 59700 45000.00000 0 -11674313.372 -13928619.943 17906311.247 10 0 59700 45900.00000 0 -12298094.902 -15907515.693 15700698.718 10 0 59700 46800.00000 0 -12974353.614 -17560116.172 13190219.844 10 0 59700 47700.00000 0 -13648002.411 -18858001.150 10423530.905 10 0 59700 48600.00000 0 -14261089.830 -19785533.840 7454302.118 10 0 59700 49500.00000 0 -14755391.619 -20340315.266 4340180.299 10 0 59700 50400.00000 0 -15075032.180 -20533095.588 1141670.411 10 0 59700 51300.00000 0 -15169024.514 -20387145.924 -2079042.302 10 0 59700 52200.00000 0 -14993620.233 -19937116.992 -5259306.415 10 0 59700 53100.00000 0 -14514368.908 -19227432.758 -8337230.219 10 0 59700 54000.00000 0 -13707798.063 -18310287.199 -11252894.736 10 0 59700 54900.00000 0 -12562641.083 -17243329.264 -13949529.231 10 0 59700 55800.00000 0 -11080559.512 -16087134.529 -16374625.230 10 0 59700 56700.00000 0 -9276327.653 -14902571.116 -18480966.522 10 0 59700 57600.00000 0 -7177470.291 -13748171.874 -20227554.387 10 0 59700 58500.00000 0 -4823367.623 -12677624.445 -21580409.536 10 0 59700 59400.00000 0 -2263864.040 -11737485.567 -22513235.011 10 0 59700 60300.00000 0 442561.668 -10965216.202 -23007927.192 10 0 59700 61200.00000 0 3230988.580 -10387620.256 -23054925.190 10 0 59700 62100.00000 0 6032517.218 -10019752.266 -22653392.234 10 0 59700 63000.00000 0 8776901.980 -9864339.451 -21811225.962 10 0 59700 63900.00000 0 11395242.912 -9911741.628 -20544897.904 10 0 59700 64800.00000 0 13822625.146 -10140449.708 -18879125.718 10 0 59700 65700.00000 0 16000596.537 -10518100.709 -16846384.960 10 0 59700 66600.00000 0 17879380.891 -11002965.463 -14486270.295 10 0 59700 67500.00000 0 19419735.492 -11545845.305 -11844718.911 10 0 59700 68400.00000 0 20594376.511 -12092296.803 -8973111.555 10 0 59700 69300.00000 0 21388914.081 -12585089.916 -5927269.074 10 0 59700 70200.00000 0 21802259.451 -12966795.188 -2766364.300 10 0 59700 71100.00000 0 21846488.797 -13182390.305 448229.304 10 0 59700 72000.00000 0 21546170.973 -13181775.690 3654129.465 10 0 59700 72900.00000 0 20937188.953 -12922092.825 6789154.114 10 0 59700 73800.00000 0 20065105.767 -12369747.430 9792524.100 10 0 59700 74700.00000 0 18983144.557 -11502052.224 12606036.288 10 0 59700 75600.00000 0 17749868.298 -10308420.042 15175184.716 10 0 59700 76500.00000 0 16426656.840 -8791056.919 17450208.648 10 0 59700 77400.00000 0 15075087.080 -6965125.693 19387047.903 10 0 59700 78300.00000 0 13754325.660 -4858372.562 20948187.904 10 0 59700 79200.00000 0 12518642.730 -2510231.210 22103379.042 10 0 59700 80100.00000 0 11415150.046 29559.361 22830217.268 10 0 59700 81000.00000 0 10481857.123 2702767.276 23114575.466 10 0 59700 81900.00000 0 9746125.946 5444836.914 22950877.722 10 0 59700 82800.00000 0 9223588.244 8187326.310 22342211.318 10 0 59700 83700.00000 0 8917570.237 10860513.482 21300274.074 10 0 59700 84600.00000 0 8819048.846 13396065.142 19845157.457 10 0 59700 85500.00000 0 8907141.424 15729658.267 18004968.742 10 0 59701 0.00000 0 9150108.855 17803446.517 15815298.646 10 0 59701 900.00000 0 9506830.622 19568270.614 13318542.210 10 0 59701 1800.00000 0 9928690.022 20985518.090 10563087.961 10 0 59701 2700.00000 0 10361791.047 22028558.488 7602386.061 10 0 59701 3600.00000 0 10749413.320 22683690.845 4493915.590 10 0 59701 4500.00000 0 11034601.446 22950564.467 1298069.553 10 0 59701 5400.00000 0 11162778.794 22842054.703 -1923020.635 10 0 59701 6300.00000 0 11084274.248 22383598.569 -5106698.007 10 0 59701 7200.00000 0 10756653.775 21612017.975 -8191005.915 10 0 59701 8100.00000 0 10146756.635 20573880.186 -11115902.198 10 0 59701 9000.00000 0 9232348.384 19323464.920 -13824437.045 10 0 59701 9900.00000 0 8003319.094 17920424.290 -16263870.496 10 0 59701 10800.00000 0 6462374.486 16427234.925 -18386707.011 10 0 59701 11700.00000 0 4625189.250 14906550.358 -20151626.221 10 0 59701 12600.00000 0 2520014.786 13418565.882 -21524291.238 10 0 59701 13500.00000 0 186756.714 12018507.354 -22478018.637 10 0 59701 14400.00000 0 -2324440.068 10754349.806 -22994297.079 10 0 59701 15300.00000 0 -4955040.125 9664861.842 -23063144.731 10 0 59701 16200.00000 0 -7640323.216 8778057.582 -22683298.911 10 0 59701 17100.00000 0 -10311855.307 8110120.552 -21862234.720 10 0 59701 18000.00000 0 -12900121.975 7664843.752 -20616012.792 10 0 59701 18900.00000 0 -15337214.727 7433608.236 -18968959.560 10 0 59701 19800.00000 0 -17559458.640 7395899.755 -16953186.683 10 0 59701 20700.00000 0 -19509872.149 7520340.312 -14607959.367 10 0 59701 21600.00000 0 -21140357.052 7766189.814 -11978926.216 10 0 59701 22500.00000 0 -22413528.156 8085253.200 -9117225.876 10 0 59701 23400.00000 0 -23304107.040 8424111.491 -6078488.247 10 0 59701 24300.00000 0 -23799822.903 8726581.618 -2921749.996 10 0 59701 25200.00000 0 -23901784.058 8936300.402 291694.254 10 0 59701 26100.00000 0 -23624305.877 8999323.038 3499482.381 10 0 59701 27000.00000 0 -22994203.771 8866625.980 6639393.547 10 0 59701 27900.00000 0 -22049582.085 8496408.392 9650551.849 10 0 59701 28800.00000 0 -20838170.747 7856094.981 12474601.460 10 0 59701 29700.00000 0 -19415280.155 6923955.746 15056830.880 10 0 59701 30600.00000 0 -17841460.430 5690274.291 17347225.069 10 0 59701 31500.00000 0 -16179963.127 4158015.338 19301425.734 10 0 59701 32400.00000 0 -14494111.297 2342962.864 20881582.142 10 0 59701 33300.00000 0 -12844687.224 273322.185 22057076.913 10 0 59701 34200.00000 0 -11287446.168 -2011198.513 22805113.622 10 0 59701 35100.00000 0 -9870858.904 -4460790.369 23111155.615 10 0 59701 36000.00000 0 -8634176.268 -7017373.115 22969208.036 10 0 59701 36900.00000 0 -7605895.639 -9616777.089 22381937.762 10 0 59701 37800.00000 0 -6802692.601 -12191189.170 21360628.729 10 0 59701 38700.00000 0 -6228861.953 -14671762.788 19924972.926 10 0 59701 39600.00000 0 -5876291.263 -16991284.924 18102700.220 10 0 59701 40500.00000 0 -5724968.074 -19086790.436 15929053.059 10 0 59701 41400.00000 0 -5743999.731 -20902015.668 13446114.956 10 0 59701 42300.00000 0 -5893103.294 -22389589.309 10702004.601 10 0 59701 43200.00000 0 -6124503.134 -23512869.107 7749950.138 10 0 59701 44100.00000 0 -6385156.347 -24247347.181 4647260.752 10 0 59701 45000.00000 0 -6619211.967 -24581564.492 1454215.136 10 0 59701 45900.00000 0 -6770599.605 -24517495.399 -1767111.626 10 0 59701 46800.00000 0 -6785637.229 -24070385.485 -4954059.685 10 0 59701 47700.00000 0 -6615546.588 -23268048.937 -8044610.247 10 0 59701 48600.00000 0 -6218768.409 -22149654.757 -10978600.875 10 0 59701 49500.00000 0 -5562977.735 -20764052.875 -13698905.651 10 0 59701 50400.00000 0 -4626712.485 -19167710.896 -16152556.110 10 0 59701 51300.00000 0 -3400544.713 -17422348.776 -18291780.257 10 0 59701 52200.00000 0 -1887743.476 -15592371.544 -20074938.738 10 0 59701 53100.00000 0 -104399.989 -13742208.631 -21467339.415 10 0 59701 54000.00000 0 1920991.461 -11933672.139 -22441914.312 10 0 59701 54900.00000 0 4148480.277 -10223445.227 -22979745.814 10 0 59701 55800.00000 0 6528094.996 -8660806.113 -23070432.049 10 0 59701 56700.00000 0 9001707.947 -7285682.801 -22712284.809 10 0 59701 57600.00000 0 11505251.554 -6127119.420 -21912356.523 10 0 59701 58500.00000 0 13971193.933 -5202217.542 -20686296.295 10 0 59701 59400.00000 0 16331170.703 -4515595.548 -19058038.234 10 0 59701 60300.00000 0 18518663.413 -4059387.215 -17059328.528 10 0 59701 61200.00000 0 20471612.999 -3813777.963 -14729100.889 10 0 59701 62100.00000 0 22134859.588 -3748054.506 -12112712.832 10 0 59701 63000.00000 0 23462307.245 -3822122.051 -9261057.950 10 0 59701 63900.00000 0 24418723.821 -3988423.648 -6229571.862 10 0 59701 64800.00000 0 24981101.474 -4194179.384 -3077151.436 10 0 59701 65700.00000 0 25139521.893 -4383849.824 134991.362 10 0 59701 66600.00000 0 24897491.052 -4501718.864 3344518.404 10 0 59701 67500.00000 0 24271730.587 -4494486.316 6489173.823 10 0 59701 68400.00000 0 23291435.607 -4313760.397 9507988.442 10 0 59701 69300.00000 0 21997030.949 -3918344.737 12342456.861 10 0 59701 70200.00000 0 20438478.725 -3276223.387 14937664.715 10 0 59701 71100.00000 0 18673208.361 -2366160.078 17243344.841 10 0 59701 72000.00000 0 16763755.874 -1178844.314 19214842.525 10 0 59701 72900.00000 0 14775210.730 282464.234 20813972.070 10 0 59701 73800.00000 0 12772576.283 2001820.742 22009749.045 10 0 59701 74700.00000 0 10818153.081 3951015.378 22778984.908 10 0 59701 75600.00000 0 8969053.037 6090512.378 23106733.281 10 0 59701 76500.00000 0 7274946.905 8370870.433 22986579.747 10 0 59701 77400.00000 0 5776137.813 10734586.959 22420769.737 10 0 59701 78300.00000 0 4502040.154 13118291.337 21420171.864 10 0 59701 79200.00000 0 3470126.434 15455197.670 20004076.838 10 0 59701 80100.00000 0 2685385.543 17677716.556 18199834.997 10 0 59701 81000.00000 0 2140314.790 19720118.463 16042338.352 10 0 59701 81900.00000 0 1815445.898 21521138.653 13573355.908 10 0 59701 82800.00000 0 1680383.036 23026415.380 10840733.966 10 0 59701 83700.00000 0 1695309.308 24190659.544 7897475.822 10 0 59701 84600.00000 0 1812898.301 24979464.646 4800717.869 10 0 59701 85500.00000 0 1980549.980 25370680.450 1610621.594 10 0 59702 0.00000 0 2142856.063 25355291.908 -1610796.804 10 0 59702 900.00000 0 2244190.018 24937765.364 -4800877.904 10 0 59702 1800.00000 0 2231310.900 24135846.763 -7897543.008 10 0 59702 2700.00000 0 2055869.772 22979819.645 -10840511.695 10 0 59702 3600.00000 0 1676710.913 21511253.658 -13572483.943 10 0 59702 4500.00000 0 1061868.916 19781296.222 -16040264.457 10 0 59702 5400.00000 0 190175.541 17848579.283 -18195806.158 10 0 59702 6300.00000 0 -947593.130 15776829.481 -19997151.786 10 0 59702 7200.00000 0 -2348079.067 13632282.564 -21409254.756 10 0 59702 8100.00000 0 -3995242.323 11481010.979 -22404663.097 10 0 59702 9000.00000 0 -5860804.001 9386276.947 -22964053.200 10 0 59702 9900.00000 0 -7905214.308 7406022.053 -23076603.176 10 0 59702 10800.00000 0 -10079105.754 5590598.201 -22740198.973 10 0 59702 11700.00000 0 -12325171.052 3980834.304 -21961469.680 10 0 59702 12600.00000 0 -14580387.389 2606518.742 -20755651.816 10 0 59702 13500.00000 0 -16778494.253 1485359.805 -19146285.709 10 0 59702 14400.00000 0 -18852621.403 622466.111 -17164750.271 10 0 59702 15300.00000 0 -20737957.224 10367.041 -14849645.601 10 0 59702 16200.00000 0 -22374346.128 -370429.542 -12246035.796 10 0 59702 17100.00000 0 -23708706.662 -550367.662 -9404566.944 10 0 59702 18000.00000 0 -24697169.491 -569308.439 -6380477.854 10 0 59702 18900.00000 0 -25306846.289 -474596.482 -3232523.083 10 0 59702 19800.00000 0 -25517156.120 -318810.424 -21829.438 10 0 59702 20700.00000 0 -25320654.463 -157293.614 3189291.395 10 0 59702 21600.00000 0 -24723330.985 -45570.126 6338550.920 10 0 59702 22500.00000 0 -23744364.396 -36755.701 9364889.033 10 0 59702 23400.00000 0 -22415345.411 -179073.243 12209653.020 10 0 59702 24300.00000 0 -20779000.945 -513577.807 14817727.798 10 0 59702 25200.00000 0 -18887473.249 -1072187.014 17138596.052 10 0 59702 26100.00000 0 -16800225.991 -1876099.845 19127308.378 10 0 59702 27000.00000 0 -14581664.440 -2934670.461 20745345.552 10 0 59702 27900.00000 0 -12298568.374 -4244784.743 21961357.192 10 0 59702 28800.00000 0 -10017443.832 -5790766.330 22751763.366 10 0 59702 29700.00000 0 -7801902.840 -7544817.105 23101208.328 10 0 59702 30600.00000 0 -5710178.863 -9467975.120 23002858.096 10 0 59702 31500.00000 0 -3792880.135 -11511551.467 22458536.323 10 0 59702 32400.00000 0 -2091073.128 -13618988.026 21478695.662 10 0 59702 33300.00000 0 -634774.898 -15728060.376 20082224.635 10 0 59702 34200.00000 0 558083.586 -17773335.727 18296092.891 10 0 59702 35100.00000 0 1482180.492 -19688784.787 16154840.599 10 0 59702 36000.00000 0 2144790.981 -21410439.656 13699920.622 10 0 59702 36900.00000 0 2565240.520 -22878987.273 10978905.029 10 0 59702 37800.00000 0 2773846.653 -24042190.117 8044570.235 10 0 59702 38700.00000 0 2810393.789 -24857032.454 4953877.657 10 0 59702 39600.00000 0 2722205.392 -25291501.376 1766869.274 10 0 59702 40500.00000 0 2561895.281 -25325926.907 -1454500.576 10 0 59702 41400.00000 0 2384893.683 -24953823.659 -4647574.197 10 0 59702 42300.00000 0 2246853.500 -24182197.537 -7750216.088 10 0 59702 43200.00000 0 2201047.770 -23031303.519 -10702030.401 10 0 59702 44100.00000 0 2295869.797 -21533863.931 -13445545.576 10 0 59702 45000.00000 0 2572543.281 -19733779.553 -15927342.027 10 0 59702 45900.00000 0 3063140.825 -17684387.559 -18099100.020 10 0 59702 46800.00000 0 3788996.097 -15446339.423 -19918546.634 10 0 59702 47700.00000 0 4759578.026 -13085188.128 -21350282.809 10 0 59702 48600.00000 0 5971875.730 -10668786.059 -22366474.201 10 0 59702 49500.00000 0 7410321.079 -8264602.776 -22947392.423 10 0 59702 50400.00000 0 9047252.886 -5937075.036 -23081796.346 10 0 59702 51300.00000 0 10843903.829 -3745099.663 -22767146.411 10 0 59702 52200.00000 0 12751869.067 -1739773.554 -22009648.271 10 0 59702 53100.00000 0 14714995.188 37525.488 -20824125.350 10 0 59702 54000.00000 0 16671610.482 1556638.101 -19233723.285 10 0 59702 54900.00000 0 18557003.199 2799641.659 -17269452.381 10 0 59702 55800.00000 0 20306043.983 3761346.609 -14969577.401 10 0 59702 56700.00000 0 21855842.708 4449251.987 -12378866.867 10 0 59702 57600.00000 0 23148328.532 4882964.007 -9547716.792 10 0 59702 58500.00000 0 24132645.153 5093104.094 -6531166.236 10 0 59702 59400.00000 0 24767261.176 5119754.235 -3387824.183 10 0 59702 60300.00000 0 25021707.474 5010506.785 -178728.825 10 0 59702 61200.00000 0 24877869.140 4818202.375 3033838.154 10 0 59702 62100.00000 0 24330778.417 4598452.455 6187559.141 10 0 59702 63000.00000 0 23388875.922 4407051.826 9221286.461 10 0 59702 63900.00000 0 22073729.741 4297390.799 12076223.174 10 0 59702 64800.00000 0 20419224.588 4317976.376 14697056.224 10 0 59702 65700.00000 0 18470255.105 4510166.973 17033020.515 10 0 59702 66600.00000 0 16280977.949 4906216.009 19038873.912 10 0 59702 67500.00000 0 13912695.225 5527706.639 20675765.211 10 0 59702 68400.00000 0 11431456.846 6384443.493 21911979.202 10 0 59702 69300.00000 0 8905480.772 7473848.247 22723545.263 10 0 59702 70200.00000 0 6402497.222 8780884.988 23094698.538 10 0 59702 71100.00000 0 3987125.923 10278519.531 23018185.281 10 0 59702 72000.00000 0 1718394.037 11928694.701 22495406.692 10 0 59702 72900.00000 0 -352503.438 13683782.399 21536398.314 10 0 59702 73800.00000 0 -2184108.948 15488453.497 20159644.871 10 0 59702 74700.00000 0 -3746194.938 17281889.052 18391733.280 10 0 59702 75600.00000 0 -5020782.314 19000241.988 16266849.470 10 0 59702 76500.00000 0 -6002642.810 20579247.541 13826127.476 10 0 59702 77400.00000 0 -6699264.466 21956873.972 11116862.242 10 0 59702 78300.00000 0 -7130281.880 23075902.841 8191600.285 10 0 59702 79200.00000 0 -7326395.229 23886330.458 5107124.971 10 0 59702 80100.00000 0 -7327823.679 24347488.992 1923355.695 10 0 59702 81000.00000 0 -7182358.672 24429797.116 -1297817.787 10 0 59702 81900.00000 0 -6943099.770 24116065.273 -4493742.982 10 0 59702 82800.00000 0 -6665969.507 23402299.260 -7602230.023 10 0 59702 83700.00000 0 -6407113.336 22297967.021 -10562770.113 10 0 59702 84600.00000 0 -6220295.953 20825716.190 -13317722.350 10 0 59702 85500.00000 0 -6154405.465 19020553.433 -15813444.726 10 0 59703 0.00000 0 -6251172.430 16928519.608 -18001346.203 10 0 59703 900.00000 0 -6543201.626 14604914.868 -19838839.792 10 0 59703 1800.00000 0 -7052400.779 12112150.977 -21290174.624 10 0 59703 2700.00000 0 -7788873.832 9517317.086 -22327134.557 10 0 59703 3600.00000 0 -8750326.173 6889563.694 -22929586.705 10 0 59703 4500.00000 0 -9922007.545 4297413.174 -23085870.659 10 0 59703 5400.00000 0 -11277195.448 1806109.232 -22793020.996 10 0 59703 6300.00000 0 -12778199.015 -524884.464 -22056819.208 10 0 59703 7200.00000 0 -14377841.251 -2644132.652 -20891674.516 10 0 59703 8100.00000 0 -16021357.407 -4510131.068 -19320336.375 10 0 59703 9000.00000 0 -17648629.808 -6092785.132 -17373444.643 10 0 59703 9900.00000 0 -19196665.159 -7374404.493 -15088926.586 10 0 59703 10800.00000 0 -20602210.336 -8350173.683 -12511252.765 10 0 59703 11700.00000 0 -21804396.793 -9028081.194 -9690566.557 10 0 59703 12600.00000 0 -22747302.519 -9428311.915 -6681704.640 10 0 59703 13500.00000 0 -23382324.080 -9582130.524 -3543127.743 10 0 59703 14400.00000 0 -23670259.271 -9530304.636 -335782.766 10 0 59703 15300.00000 0 -23583013.129 -9321135.739 2878081.261 10 0 59703 16200.00000 0 -23104856.035 -9008182.260 6036120.218 10 0 59703 17100.00000 0 -22233181.390 -8647771.779 9077101.402 10 0 59703 18000.00000 0 -20978731.437 -8296407.958 11942086.098 10 0 59703 18900.00000 0 -19365281.986 -8008181.859 14575565.578 10 0 59703 19800.00000 0 -17428799.278 -7832296.823 16926529.045 10 0 59703 20700.00000 0 -15216104.114 -7810810.993 18949443.440 10 0 59703 21600.00000 0 -12783098.559 -7976692.252 20605127.030 10 0 59703 22500.00000 0 -10192628.388 -8352267.176 21861500.840 10 0 59703 23400.00000 0 -7512069.305 -8948129.044 22694204.203 10 0 59703 24300.00000 0 -4810736.012 -9762550.964 23087063.376 10 0 59703 25200.00000 0 -2157220.333 -10781429.249 23032404.682 10 0 59703 26100.00000 0 383232.525 -11978760.252 22531206.343 10 0 59703 27000.00000 0 2751202.115 -13317631.931 21593085.956 10 0 59703 27900.00000 0 4895323.777 -14751690.035 20236123.336 10 0 59703 28800.00000 0 6774180.847 -16227019.071 18486521.308 10 0 59703 29700.00000 0 8357780.240 -17684360.760 16378109.967 10 0 59703 30600.00000 0 9628550.524 -19061578.367 13951702.688 10 0 59703 31500.00000 0 10581821.121 -20296264.449 11254315.241 10 0 59703 32400.00000 0 11225762.802 -21328383.146 8338261.968 10 0 59703 33300.00000 0 11580792.084 -22102835.991 5260145.728 10 0 59703 34200.00000 0 11678464.609 -22571842.857 2079760.740 10 0 59703 35100.00000 0 11559904.305 -22697036.925 -1141070.505 10 0 59703 36000.00000 0 11273834.957 -22451184.167 -4339703.414 10 0 59703 36900.00000 0 10874297.868 -21819453.446 -7453896.414 10 0 59703 37800.00000 0 10418152.915 -20800182.169 -10423030.350 10 0 59703 38700.00000 0 9962469.738 -19405103.801 -13189297.452 10 0 59703 39600.00000 0 9561920.572 -17659026.372 -15698835.618 10 0 59703 40500.00000 0 9266286.264 -15598974.530 -17902785.013 10 0 59703 41400.00000 0 9118182.149 -13272830.380 -19758245.690 10 0 59703 42300.00000 0 9151100.957 -10737529.792 -21229117.001 10 0 59703 43200.00000 0 9387856.319 -8056889.450 -22286802.265 10 0 59703 44100.00000 0 9839493.254 -5299155.455 -22910764.976 10 0 59703 45000.00000 0 10504711.985 -2534375.929 -23088925.920 10 0 59703 45900.00000 0 11369829.620 168292.882 -22817893.878 10 0 59703 46800.00000 0 12409281.337 2743234.923 -22103025.865 10 0 59703 47700.00000 0 13586639.903 5130867.099 -20958316.225 10 0 59703 48600.00000 0 14856110.416 7279873.379 -19406117.210 10 0 59703 49500.00000 0 16164437.185 9149088.204 -17476696.871 10 0 59703 50400.00000 0 17453142.274 10708951.850 -15207643.283 10 0 59703 51300.00000 0 18661001.301 11942478.678 -12643127.002 10 0 59703 52200.00000 0 19726652.163 12845699.589 -9833036.402 10 0 59703 53100.00000 0 20591226.762 13427562.074 -6832003.071 10 0 59703 54000.00000 0 21200894.925 13709294.095 -3698336.522 10 0 59703 54900.00000 0 21509213.500 13723260.447 -492889.202 10 0 59703 55800.00000 0 21479181.847 13511361.421 2722125.778 10 0 59703 56700.00000 0 21084917.455 13123042.741 5884341.044 10 0 59703 57600.00000 0 20312881.385 12613001.768 8932442.013 10 0 59703 58500.00000 0 19162602.230 12038687.470 11807351.137 10 0 59703 59400.00000 0 17646868.322 11457699.954 14453366.694 10 0 59703 60300.00000 0 15791379.981 10925199.242 16819234.561 10 0 59703 61200.00000 0 13633876.144 10491432.206 18859132.789 10 0 59703 62100.00000 0 11222771.312 10199481.377 20533550.809 10 0 59703 63000.00000 0 8615358.778 10083329.807 21810047.201 10 0 59703 63900.00000 0 5875653.967 10166322.901 22663872.181 10 0 59703 64800.00000 0 3071966.180 10460091.538 23078443.628 10 0 59703 65700.00000 0 274298.089 10963981.707 23045667.987 10 0 59703 66600.00000 0 -2448320.601 11665014.935 22566100.062 10 0 59703 67500.00000 0 -5030456.277 12538381.867 21648938.552 10 0 59703 68400.00000 0 -7412743.963 13548449.362 20311856.891 10 0 59703 69300.00000 0 -9544107.757 14650240.085 18580671.859 10 0 59703 70200.00000 0 -11383637.875 15791323.859 16488855.323 10 0 59703 71100.00000 0 -12902046.871 16914042.674 14076897.266 10 0 59703 72000.00000 0 -14082644.607 17957976.860 11391531.297 10 0 59703 72900.00000 0 -14921791.484 18862549.448 8484836.466 10 0 59703 73800.00000 0 -15428810.968 19569659.300 5413231.954 10 0 59703 74700.00000 0 -15625365.038 20026231.825 2236383.660 10 0 59703 75600.00000 0 -15544318.908 20186578.989 -983956.239 10 0 59703 76500.00000 0 -15228143.015 20014467.935 -4185153.977 10 0 59703 77400.00000 0 -14726920.065 19484809.451 -7304919.028 10 0 59703 78300.00000 0 -14096041.965 18584893.464 -10282524.419 10 0 59703 79200.00000 0 -13393694.773 17315117.768 -13059997.794 10 0 59703 80100.00000 0 -12678239.021 15689177.798 -15583258.933 10 0 59703 81000.00000 0 -12005597.235 13733708.089 -17803180.655 10 0 59703 81900.00000 0 -11426760.144 11487389.397 -19676551.731 10 0 59703 82800.00000 0 -10985517.882 8999558.226 -21166922.447 10 0 59703 83700.00000 0 -10716512.753 6328376.478 -22245316.157 10 0 59703 84600.00000 0 -10643696.241 3538637.430 -22890792.966 10 0 59703 85500.00000 0 -10779255.617 699299.622 -23090854.759 99